Cortez, CO

9:22 PM MDT on October 18, 2019 (GMT -0600)
Cortez Municipal

Weather History for KCEZ - September, 2019

Change the Weather History Date:

Saturday, September 21, 2019

  Actual Average Record
Temperature  
Mean Temperature 53 °F 58 °F  
Max Temperature 73 °F 76 °F 85 °F (2015)
Min Temperature 32 °F 41 °F 32 °F (2019)
Degree Days  
Heating Degree Days 12 7  
Month to date heating degree days 52 82  
Since 1 July heating degree days 52 94  
Cooling Degree Days 0 0  
Month to date cooling degree days 67 16  
Year to date cooling degree days 547 425  
Growing Degree Days 2 (Base 50)    
Moisture  
Dew Point 23 °F    
Average Humidity 38    
Maximum Humidity 63    
Minimum Humidity 13    
Precipitation  
Precipitation 0.00 in 0.08 in 0.31 in (2014)
Month to date precipitation 0.17 1.26  
Year to date precipitation 9.95 9.70  
Sea Level Pressure  
Sea Level Pressure 29.97 in    
Wind  
Wind Speed 7 mph (East)    
Max Wind Speed 18 mph    
Max Gust Speed 25 mph    
Visibility 10 miles    
Events      
T = Trace of Precipitation, MM = Missing Value Source: NWS Daily Summary

Daily Weather History Graph

Daily Weather History Graph

Search for Another Location

Airport or City:

Astronomy

Sep. 21, 2019 Rise Set
Actual Time 7:01 AM MDT 7:13 PM MDT
Civil Twilight 6:35 AM MDT 7:39 PM MDT
Nautical Twilight 6:04 AM MDT 8:09 PM MDT
Astronomical Twilight 5:33 AM MDT 8:40 PM MDT
Moon No Moon Rise 2:02 PM MDT (9/21)
Length of Visible Light 13h 03m
Length of Day
12h 11m
Waning Gibbous, 54% of the Moon is Illuminated
Sep 21
Waning Gibbous
Sep 21
Last Quarter
Sep 28
New
Oct 5
First Quarter
Oct 13
Full

Hourly Weather History & Observations

Time (MDT) Temp. Windchill Dew Point Humidity Pressure Visibility Wind Dir Wind Speed Gust Speed Precip Events Conditions
12:53 AM 43.0 °F 38.8 °F 25.0 °F 49% 29.91 in 10.0 mi ENE 6.9 mph - N/A   Clear
1:53 AM 39.0 °F 33.4 °F 24.1 °F 55% 29.93 in 10.0 mi ENE 8.1 mph - N/A   Clear
2:53 AM 39.9 °F 35.1 °F 25.0 °F 55% 29.94 in 10.0 mi East 6.9 mph - N/A   Clear
3:53 AM 37.0 °F 31.6 °F 25.0 °F 62% 29.95 in 10.0 mi East 6.9 mph - N/A   Clear
4:53 AM 37.0 °F 32.4 °F 23.0 °F 57% 29.97 in 10.0 mi East 5.8 mph - N/A   Clear
5:53 AM 35.1 °F 29.3 °F 23.0 °F 61% 29.98 in 10.0 mi East 6.9 mph - N/A   Clear
6:53 AM 32.0 °F 26.4 °F 21.9 °F 66% 30.00 in 10.0 mi NE 5.8 mph - N/A   Clear
7:53 AM 37.0 °F - 24.1 °F 59% 30.01 in 10.0 mi Calm Calm - N/A   Clear
8:53 AM 46.9 °F - 26.1 °F 44% 30.02 in 10.0 mi Calm Calm - N/A   Clear
9:53 AM 57.9 °F - 26.1 °F 30% 30.00 in 10.0 mi Calm Calm - N/A   Clear
10:53 AM 64.9 °F - 27.0 °F 24% 29.98 in 10.0 mi Variable 3.5 mph - N/A   Clear
11:53 AM 69.1 °F - 25.0 °F 19% 29.97 in 10.0 mi SW 16.1 mph - N/A   Clear
12:53 PM 70.0 °F - 23.0 °F 17% 29.96 in 10.0 mi SW 16.1 mph 23.0 mph N/A   Clear
1:53 PM 72.0 °F - 21.9 °F 15% 29.95 in 10.0 mi SSW 13.8 mph 20.7 mph N/A   Clear
2:53 PM 72.0 °F - 21.0 °F 15% 29.94 in 10.0 mi Variable 6.9 mph 17.3 mph N/A   Clear
3:53 PM 72.0 °F - 19.0 °F 13% 29.92 in 10.0 mi Variable 5.8 mph - N/A   Clear
4:53 PM 72.0 °F - 17.1 °F 12% 29.91 in 10.0 mi WNW 8.1 mph - N/A   Clear
5:53 PM 71.1 °F - 17.1 °F 13% 29.92 in 10.0 mi WNW 11.5 mph - N/A   Clear
6:53 PM 66.0 °F - 18.0 °F 16% 29.96 in 10.0 mi WNW 8.1 mph - N/A   Clear
7:53 PM 51.1 °F - 25.0 °F 36% 30.01 in 10.0 mi SE 4.6 mph - N/A   Clear
8:53 PM 48.0 °F - 24.1 °F 39% 30.00 in 10.0 mi ENE 6.9 mph - N/A   Clear
9:53 PM 48.0 °F - 21.0 °F 34% 29.99 in 10.0 mi East 4.6 mph - N/A   Clear
10:53 PM 44.1 °F 40.1 °F 19.9 °F 38% 29.99 in 10.0 mi East 6.9 mph - N/A   Clear
11:53 PM 41.0 °F - 19.0 °F 41% 29.99 in 10.0 mi Calm Calm - N/A   Clear